Time,TemperatureF,DewpointF,PressureIn,WindDirection,WindDirectionDegrees,WindSpeedMPH,WindSpeedGustMPH,Humidity,HourlyPrecipIn,Conditions,Clouds,dailyrainin,SoftwareType,DateUTC
2013-01-24 00:01:00,0.3,-21.5,30.11,West,280,0.0,0.0,34,0.00,CLR,,0.00,WeatherDisplay:10.37,2013-01-24 05:01:00,
2013-01-24 00:03:00,0.5,-21.3,30.11,West,274,3.5,0.0,34,0.00,CLR,,0.00,WeatherDisplay:10.37,2013-01-24 05:03:00,
2013-01-24 00:05:00,0.5,-21.3,30.11,West,276,3.5,0.0,34,0.00,CLR,,0.00,WeatherDisplay:10.37,2013-01-24 05:05:00,
2013-01-24 00:10:00,0.9,-21.0,30.11,West,280,2.3,0.0,34,0.00,CLR,,0.00,WeatherDisplay:10.37,2013-01-24 05:10:00,
2013-01-24 00:15:00,1.4,-20.5,30.11,NW,324,3.5,3.5,34,0.00,CLR,,0.00,WeatherDisplay:10.37,2013-01-24 05:15:00,
2013-01-24 00:20:00,1.9,-20.0,30.11,WSW,252,3.5,3.5,34,0.00,CLR,,0.00,WeatherDisplay:10.37,2013-01-24 05:20:00,
2013-01-24 00:25:00,1.9,-20.0,30.11,WNW,298,3.5,3.5,34,0.00,CLR,,0.00,WeatherDisplay:10.37,2013-01-24 05:25:00,
2013-01-24 00:30:00,1.9,-20.0,30.11,NW,313,3.5,3.5,34,0.00,CLR,,0.00,WeatherDisplay:10.37,2013-01-24 05:30:00,
2013-01-24 00:35:00,1.9,-20.0,30.11,WNW,293,3.5,3.5,34,0.00,CLR,,0.00,WeatherDisplay:10.37,2013-01-24 05:35:00,
2013-01-24 00:40:00,1.9,-20.0,30.11,NW,312,4.6,4.6,34,0.00,CLR,,0.00,WeatherDisplay:10.37,2013-01-24 05:40:00,
2013-01-24 00:45:00,1.8,-20.2,30.11,West,278,4.6,4.6,34,0.00,CLR,,0.00,WeatherDisplay:10.37,2013-01-24 05:45:00,
2013-01-24 00:50:00,1.6,-20.4,30.11,West,259,5.8,5.8,34,0.00,CLR,,0.00,WeatherDisplay:10.37,2013-01-24 05:50:00,
2013-01-24 00:55:00,1.4,-20.5,30.11,NW,307,3.5,3.5,34,0.00,CLR,,0.00,WeatherDisplay:10.37,2013-01-24 05:55:00,
2013-01-24 01:00:00,1.4,-20.5,30.11,WNW,286,2.7,2.7,34,0.00,CLR,,0.00,WeatherDisplay:10.37,2013-01-24 06:00:00,
2013-01-24 01:05:00,0.9,-21.0,30.11,NW,317,2.3,0.0,34,0.00,CLR,,0.00,WeatherDisplay:10.37,2013-01-24 06:05:00,
2013-01-24 01:10:00,0.5,-21.3,30.11,North,350,2.3,0.0,34,0.00,CLR,,0.00,WeatherDisplay:10.37,2013-01-24 06:10:00,
2013-01-24 01:15:00,0.9,-21.0,30.11,West,270,0.0,0.0,34,0.00,CLR,,0.00,WeatherDisplay:10.37,2013-01-24 06:15:00,
2013-01-24 01:20:00,0.7,-21.2,30.11,WNW,298,3.6,3.6,34,0.00,CLR,,0.00,WeatherDisplay:10.37,2013-01-24 06:20:00,
2013-01-24 01:25:00,0.9,-21.0,30.11,NNE,24,3.5,0.0,34,0.00,CLR,,0.00,WeatherDisplay:10.37,2013-01-24 06:25:00,
2013-01-24 01:30:00,0.3,-21.5,30.11,NNE,21,0.0,0.0,34,0.00,CLR,,0.00,WeatherDisplay:10.37,2013-01-24 06:30:00,
2013-01-24 01:35:00,0.1,-21.7,30.11,NW,309,2.3,0.0,34,0.00,CLR,,0.00,WeatherDisplay:10.37,2013-01-24 06:35:00,
2013-01-24 01:40:00,0.0,-21.8,30.11,NNE,18,0.0,0.0,34,0.00,CLR,,0.00,WeatherDisplay:10.37,2013-01-24 06:40:00,
2013-01-24 01:45:00,-0.6,-22.3,30.11,NNE,25,0.0,0.0,34,0.00,CLR,,0.00,WeatherDisplay:10.37,2013-01-24 06:45:00,
2013-01-24 01:50:00,-0.6,-22.3,30.11,ENE,70,0.0,0.0,34,0.00,CLR,,0.00,WeatherDisplay:10.37,2013-01-24 06:50:00,
2013-01-24 01:55:00,-0.6,-22.3,30.11,NW,310,0.0,0.0,34,0.00,CLR,,0.00,WeatherDisplay:10.37,2013-01-24 06:55:00,
2013-01-24 02:00:00,-0.6,-22.3,30.11,WNW,297,3.5,0.0,34,0.00,CLR,,0.00,WeatherDisplay:10.37,2013-01-24 07:00:00,
2013-01-24 02:05:00,-0.4,-22.1,30.11,WNW,283,2.3,0.0,34,0.00,CLR,,0.00,WeatherDisplay:10.37,2013-01-24 07:05:00,
2013-01-24 02:10:00,0.0,-21.8,30.11,WNW,293,2.3,0.0,34,0.00,CLR,,0.00,WeatherDisplay:10.37,2013-01-24 07:10:00,
2013-01-24 02:15:00,0.3,-21.5,30.11,WNW,286,3.5,3.5,34,0.00,CLR,,0.00,WeatherDisplay:10.37,2013-01-24 07:15:00,
2013-01-24 02:20:00,0.5,-21.3,30.11,West,274,3.5,3.5,34,0.00,CLR,,0.00,WeatherDisplay:10.37,2013-01-24 07:20:00,
2013-01-24 02:25:00,0.3,-21.5,30.11,NW,305,3.5,0.0,34,0.00,CLR,,0.00,WeatherDisplay:10.37,2013-01-24 07:25:00,
2013-01-24 02:30:00,0.0,-21.8,30.11,West,266,0.0,0.0,34,0.00,CLR,,0.00,WeatherDisplay:10.37,2013-01-24 07:30:00,
2013-01-24 02:35:00,-0.4,-22.1,30.11,WNW,290,3.5,3.5,34,0.00,CLR,,0.00,WeatherDisplay:10.37,2013-01-24 07:35:00,
2013-01-24 02:40:00,-0.6,-22.3,30.11,WNW,290,0.0,0.0,34,0.00,CLR,,0.00,WeatherDisplay:10.37,2013-01-24 07:40:00,
2013-01-24 02:45:00,-0.2,-22.0,30.11,West,268,3.5,3.5,34,0.00,CLR,,0.00,WeatherDisplay:10.37,2013-01-24 07:45:00,
2013-01-24 02:50:00,-0.2,-22.0,30.11,WNW,283,0.0,0.0,34,0.00,CLR,,0.00,WeatherDisplay:10.37,2013-01-24 07:50:00,
2013-01-24 02:55:00,-0.8,-22.5,30.11,NNW,346,3.5,3.5,34,0.00,CLR,,0.00,WeatherDisplay:10.37,2013-01-24 07:55:00,
2013-01-24 03:00:00,-0.9,-22.6,30.11,WNW,288,3.5,3.5,34,0.00,CLR,,0.00,WeatherDisplay:10.37,2013-01-24 08:00:00,
2013-01-24 03:05:00,-0.4,-22.1,30.11,West,275,3.5,3.5,34,0.00,CLR,,0.00,WeatherDisplay:10.37,2013-01-24 08:05:00,
2013-01-24 03:10:00,-0.4,-22.1,30.11,WNW,293,3.5,3.5,34,0.00,CLR,,0.00,WeatherDisplay:10.37,2013-01-24 08:10:00,
2013-01-24 03:15:00,-0.2,-22.0,30.11,North,3,2.3,0.0,34,0.00,CLR,,0.00,WeatherDisplay:10.37,2013-01-24 08:15:00,
2013-01-24 03:20:00,-0.9,-22.6,30.11,NE,48,0.0,0.0,34,0.00,CLR,,0.00,WeatherDisplay:10.37,2013-01-24 08:20:00,
2013-01-24 03:26:00,-1.1,-22.8,30.11,WNW,297,2.3,2.3,34,0.00,CLR,,0.00,WeatherDisplay:10.37,2013-01-24 08:26:00,
2013-01-24 03:31:00,-0.9,-22.6,30.11,WNW,293,3.5,3.5,34,0.00,CLR,,0.00,WeatherDisplay:10.37,2013-01-24 08:31:00,
2013-01-24 03:36:00,-0.9,-22.6,30.11,WNW,290,2.3,2.3,34,0.00,CLR,,0.00,WeatherDisplay:10.37,2013-01-24 08:36:00,
2013-01-24 03:41:00,-0.4,-22.1,30.11,West,261,3.5,3.5,34,0.00,CLR,,0.00,WeatherDisplay:10.37,2013-01-24 08:41:00,
2013-01-24 03:46:00,-0.8,-22.5,30.11,West,275,2.3,0.0,34,0.00,CLR,,0.00,WeatherDisplay:10.37,2013-01-24 08:46:00,
2013-01-24 03:51:00,-0.8,-22.5,30.11,NW,308,2.3,0.0,34,0.00,CLR,,0.00,WeatherDisplay:10.37,2013-01-24 08:51:00,
2013-01-24 03:56:00,-1.1,-22.8,30.11,NNW,329,0.0,0.0,34,0.00,CLR,,0.00,WeatherDisplay:10.37,2013-01-24 08:56:00,
2013-01-24 04:01:00,-1.1,-22.8,30.11,NNW,330,0.0,0.0,34,0.00,CLR,,0.00,WeatherDisplay:10.37,2013-01-24 09:01:00,
2013-01-24 04:06:00,-1.8,-23.4,30.11,NNW,330,0.0,0.0,34,0.00,CLR,,0.00,WeatherDisplay:10.37,2013-01-24 09:06:00,
2013-01-24 04:11:00,-2.4,-23.9,30.11,NNW,330,2.3,0.0,34,0.00,CLR,,0.00,WeatherDisplay:10.37,2013-01-24 09:11:00,
2013-01-24 04:16:00,-2.6,-24.1,30.11,NNW,331,0.0,0.0,34,0.00,CLR,,0.00,WeatherDisplay:10.37,2013-01-24 09:16:00,
2013-01-24 04:21:00,-2.6,-24.1,30.11,West,267,2.3,0.0,34,0.00,CLR,,0.00,WeatherDisplay:10.37,2013-01-24 09:21:00,
2013-01-24 04:26:00,-2.7,-24.2,30.11,West,267,0.0,0.0,34,0.00,CLR,,0.00,WeatherDisplay:10.37,2013-01-24 09:26:00,
2013-01-24 04:31:00,-3.3,-24.7,30.11,West,267,0.0,0.0,34,0.00,CLR,,0.00,WeatherDisplay:10.37,2013-01-24 09:31:00,
2013-01-24 04:36:00,-3.5,-24.9,30.11,West,268,0.0,0.0,34,0.00,CLR,,0.00,WeatherDisplay:10.37,2013-01-24 09:36:00,
2013-01-24 04:41:00,-3.5,-24.9,30.11,West,268,0.0,0.0,34,0.00,CLR,,0.00,WeatherDisplay:10.37,2013-01-24 09:41:00,
2013-01-24 04:46:00,-3.5,-24.9,30.11,West,267,0.0,0.0,34,0.00,CLR,,0.00,WeatherDisplay:10.37,2013-01-24 09:46:00,
2013-01-24 04:51:00,-3.5,-24.9,30.11,West,267,0.0,0.0,34,0.00,CLR,,0.00,WeatherDisplay:10.37,2013-01-24 09:51:00,
2013-01-24 04:56:00,-3.5,-24.9,30.11,West,267,2.3,0.0,34,0.00,CLR,,0.00,WeatherDisplay:10.37,2013-01-24 09:56:00,
2013-01-24 05:01:00,-3.5,-24.9,30.11,NW,304,2.3,2.7,34,0.00,CLR,,0.00,WeatherDisplay:10.37,2013-01-24 10:01:00,
2013-01-24 05:06:00,-2.9,-24.4,30.11,NNW,343,0.0,0.0,34,0.00,CLR,,0.00,WeatherDisplay:10.37,2013-01-24 10:06:00,
2013-01-24 05:11:00,-3.3,-24.7,30.11,NNW,343,0.0,0.0,34,0.00,CLR,,0.00,WeatherDisplay:10.37,2013-01-24 10:11:00,
2013-01-24 05:16:00,-3.5,-24.9,30.11,NNW,343,0.0,0.0,34,0.00,CLR,,0.00,WeatherDisplay:10.37,2013-01-24 10:16:00,
2013-01-24 05:21:00,-3.6,-25.0,30.11,NNW,343,0.0,0.0,34,0.00,CLR,,0.00,WeatherDisplay:10.37,2013-01-24 10:21:00,
2013-01-24 05:26:00,-3.6,-25.0,30.11,NNW,343,0.0,0.0,34,0.00,CLR,,0.00,WeatherDisplay:10.37,2013-01-24 10:26:00,
2013-01-24 05:31:00,-3.8,-25.2,30.11,North,357,3.5,0.0,34,0.00,CLR,,0.00,WeatherDisplay:10.37,2013-01-24 10:31:00,
2013-01-24 05:36:00,-3.8,-25.2,30.11,North,357,0.0,0.0,34,0.00,CLR,,0.00,WeatherDisplay:10.37,2013-01-24 10:36:00,
2013-01-24 05:41:00,-4.0,-25.4,30.11,North,357,0.0,0.0,34,0.00,CLR,,0.00,WeatherDisplay:10.37,2013-01-24 10:41:00,
2013-01-24 05:46:00,-3.6,-25.0,30.11,WNW,290,0.0,0.0,34,0.00,CLR,,0.00,WeatherDisplay:10.37,2013-01-24 10:46:00,
2013-01-24 05:51:00,-3.5,-24.9,30.11,WNW,290,0.0,0.0,34,0.00,CLR,,0.00,WeatherDisplay:10.37,2013-01-24 10:51:00,
2013-01-24 05:56:00,-3.5,-24.9,30.11,WNW,290,3.5,0.0,34,0.00,CLR,,0.00,WeatherDisplay:10.37,2013-01-24 10:56:00,
2013-01-24 06:01:00,-3.6,-25.0,30.11,WNW,290,0.0,0.0,34,0.00,CLR,,0.00,WeatherDisplay:10.37,2013-01-24 11:01:00,
2013-01-24 06:06:00,-3.8,-25.2,30.11,WNW,290,0.0,0.0,34,0.00,CLR,,0.00,WeatherDisplay:10.37,2013-01-24 11:06:00,
2013-01-24 06:11:00,-3.8,-25.2,30.11,WNW,290,0.0,0.0,34,0.00,CLR,,0.00,WeatherDisplay:10.37,2013-01-24 11:11:00,
2013-01-24 06:16:00,-3.8,-25.2,30.11,WNW,290,0.0,0.0,34,0.00,CLR,,0.00,WeatherDisplay:10.37,2013-01-24 11:16:00,
2013-01-24 06:21:00,-3.1,-24.6,30.11,WSW,256,3.5,0.0,34,0.00,CLR,,0.00,WeatherDisplay:10.37,2013-01-24 11:21:00,
2013-01-24 06:26:00,-3.1,-24.6,30.11,WNW,295,2.3,2.3,34,0.00,CLR,,0.00,WeatherDisplay:10.37,2013-01-24 11:26:00,
2013-01-24 06:31:00,-2.6,-24.1,30.11,West,271,6.3,6.3,34,0.00,CLR,,0.00,WeatherDisplay:10.37,2013-01-24 11:31:00,
2013-01-24 06:36:00,-1.7,-23.3,30.11,West,281,3.5,3.5,34,0.00,CLR,,0.00,WeatherDisplay:10.37,2013-01-24 11:36:00,
2013-01-24 06:41:00,-1.5,-23.1,30.11,NW,308,5.8,5.8,34,0.00,CLR,,0.00,WeatherDisplay:10.37,2013-01-24 11:41:00,
2013-01-24 06:46:00,-1.5,-23.1,30.11,NNW,341,3.1,3.1,34,0.00,CLR,,0.00,WeatherDisplay:10.37,2013-01-24 11:46:00,
2013-01-24 06:51:00,-1.5,-23.1,30.11,WNW,283,3.5,3.5,34,0.00,CLR,,0.00,WeatherDisplay:10.37,2013-01-24 11:51:00,
2013-01-24 06:56:00,-2.0,-23.6,30.11,WNW,286,3.5,3.5,34,0.00,CLR,,0.00,WeatherDisplay:10.37,2013-01-24 11:56:00,
2013-01-24 07:01:00,-1.5,-23.1,30.11,West,271,3.6,3.6,34,0.00,CLR,,0.00,WeatherDisplay:10.37,2013-01-24 12:01:00,
2013-01-24 07:06:00,-1.5,-23.1,30.11,WNW,288,3.1,3.1,34,0.00,CLR,,0.00,WeatherDisplay:10.37,2013-01-24 12:06:00,
2013-01-24 07:11:00,-1.5,-23.1,30.11,WNW,282,3.1,3.1,34,0.00,CLR,,0.00,WeatherDisplay:10.37,2013-01-24 12:11:00,
2013-01-24 07:16:00,-1.8,-23.4,30.11,NNW,333,2.3,2.3,34,0.00,CLR,,0.00,WeatherDisplay:10.37,2013-01-24 12:16:00,
2013-01-24 07:21:00,-1.8,-23.4,30.11,West,270,2.3,2.3,34,0.00,CLR,,0.00,WeatherDisplay:10.37,2013-01-24 12:21:00,
2013-01-24 07:26:00,-1.7,-23.3,30.11,WNW,303,4.6,4.6,34,0.00,CLR,,0.00,WeatherDisplay:10.37,2013-01-24 12:26:00,
2013-01-24 07:31:00,-1.5,-23.1,30.11,WNW,291,2.7,0.0,34,0.00,CLR,,0.00,WeatherDisplay:10.37,2013-01-24 12:31:00,
2013-01-24 07:36:00,-1.7,-23.3,30.11,North,3,2.3,0.0,34,0.00,CLR,,0.00,WeatherDisplay:10.37,2013-01-24 12:36:00,
2013-01-24 07:41:00,-1.5,-23.1,30.11,WNW,298,5.8,5.8,34,0.00,CLR,,0.00,WeatherDisplay:10.37,2013-01-24 12:41:00,
2013-01-24 07:46:00,-1.5,-23.1,30.11,WNW,298,3.5,0.0,34,0.00,CLR,,0.00,WeatherDisplay:10.37,2013-01-24 12:46:00,
2013-01-24 07:51:00,-1.5,-23.1,30.11,WNW,298,0.0,0.0,34,0.00,CLR,,0.00,WeatherDisplay:10.37,2013-01-24 12:51:00,
2013-01-24 07:56:00,-1.3,-22.9,30.11,SSW,203,0.0,0.0,34,0.00,CLR,,0.00,WeatherDisplay:10.37,2013-01-24 12:56:00,
2013-01-24 08:01:00,-1.3,-22.9,30.11,SSW,202,0.0,0.0,34,0.00,CLR,,0.00,WeatherDisplay:10.37,2013-01-24 13:01:00,
2013-01-24 08:06:00,-1.3,-22.9,30.11,WNW,302,3.5,0.0,34,0.00,CLR,,0.00,WeatherDisplay:10.37,2013-01-24 13:06:00,
2013-01-24 08:11:00,-1.3,-22.9,30.14,NNW,340,2.3,0.0,34,0.00,CLR,,0.00,WeatherDisplay:10.37,2013-01-24 13:11:00,
2013-01-24 08:16:00,0.9,-21.0,30.14,West,280,3.5,0.0,34,0.00,CLR,,0.00,WeatherDisplay:10.37,2013-01-24 13:16:00,
2013-01-24 08:21:00,1.2,-20.7,30.14,NW,320,3.5,0.0,34,0.00,CLR,,0.00,WeatherDisplay:10.37,2013-01-24 13:21:00,
2013-01-24 08:26:00,2.1,-19.9,30.14,NW,314,4.6,4.6,34,0.00,CLR,,0.00,WeatherDisplay:10.37,2013-01-24 13:26:00,
2013-01-24 08:31:00,4.5,-17.8,30.11,WNW,294,4.6,4.6,34,0.00,CLR,,0.00,WeatherDisplay:10.37,2013-01-24 13:31:00,
2013-01-24 08:36:00,4.8,-17.5,30.11,NNW,345,3.5,6.7,34,0.00,CLR,,0.00,WeatherDisplay:10.37,2013-01-24 13:36:00,
2013-01-24 08:41:00,5.9,-16.5,30.11,NW,309,4.6,4.6,34,0.00,CLR,,0.00,WeatherDisplay:10.37,2013-01-24 13:41:00,
2013-01-24 08:46:00,6.1,-16.3,30.11,WNW,286,5.8,5.8,34,0.00,CLR,,0.00,WeatherDisplay:10.37,2013-01-24 13:46:00,
2013-01-24 08:51:00,6.1,-16.3,30.14,NW,322,4.6,4.6,34,0.00,CLR,,0.00,WeatherDisplay:10.37,2013-01-24 13:51:00,
2013-01-24 08:56:00,4.1,-18.1,30.14,NW,324,5.8,5.8,34,0.00,CLR,,0.00,WeatherDisplay:10.37,2013-01-24 13:56:00,
2013-01-24 09:01:00,4.1,-18.1,30.14,North,11,8.1,8.1,34,0.00,CLR,,0.00,WeatherDisplay:10.37,2013-01-24 14:01:00,
2013-01-24 09:06:00,3.6,-18.6,30.14,North,349,5.8,5.8,34,0.00,CLR,,0.00,WeatherDisplay:10.37,2013-01-24 14:06:00,
2013-01-24 09:11:00,3.7,-18.4,30.14,NNW,346,5.8,5.8,34,0.00,CLR,,0.00,WeatherDisplay:10.37,2013-01-24 14:11:00,
2013-01-24 09:16:00,3.7,-18.4,30.14,North,8,6.9,6.9,34,0.00,CLR,,0.00,WeatherDisplay:10.37,2013-01-24 14:16:00,
2013-01-24 09:21:00,3.7,-18.4,30.14,NW,324,4.6,4.6,34,0.00,CLR,,0.00,WeatherDisplay:10.37,2013-01-24 14:21:00,
2013-01-24 09:26:00,3.7,-18.4,30.14,NW,304,5.8,5.8,34,0.00,CLR,,0.00,WeatherDisplay:10.37,2013-01-24 14:26:00,
2013-01-24 09:31:00,6.1,-16.3,30.14,NNW,348,5.8,5.8,34,0.00,CLR,,0.00,WeatherDisplay:10.37,2013-01-24 14:31:00,
2013-01-24 09:36:00,6.3,-16.2,30.14,WSW,255,5.4,5.4,34,0.00,CLR,,0.00,WeatherDisplay:10.37,2013-01-24 14:36:00,
2013-01-24 09:41:00,6.3,-16.2,30.14,NW,309,5.8,5.8,34,0.00,CLR,,0.00,WeatherDisplay:10.37,2013-01-24 14:41:00,
2013-01-24 09:46:00,6.3,-16.2,30.14,WNW,294,12.7,12.7,34,0.00,CLR,,0.00,WeatherDisplay:10.37,2013-01-24 14:46:00,
2013-01-24 09:51:00,5.7,-16.7,30.14,NNW,330,6.3,6.3,34,0.00,CLR,,0.00,WeatherDisplay:10.37,2013-01-24 14:51:00,
2013-01-24 09:56:00,5.7,-16.7,30.14,NW,315,8.1,8.1,34,0.00,CLR,,0.00,WeatherDisplay:10.37,2013-01-24 14:56:00,
2013-01-24 10:01:00,7.2,-15.4,30.11,NNW,344,2.3,3.1,34,0.00,CLR,,0.00,WeatherDisplay:10.37,2013-01-24 15:01:00,
2013-01-24 10:06:00,7.2,-15.4,30.11,West,275,5.8,5.8,34,0.00,CLR,,0.00,WeatherDisplay:10.37,2013-01-24 15:06:00,
2013-01-24 10:11:00,6.8,-15.7,30.11,West,273,3.5,4.0,34,0.00,CLR,,0.00,WeatherDisplay:10.37,2013-01-24 15:11:00,
2013-01-24 10:16:00,7.7,-14.9,30.11,WNW,299,3.5,4.9,34,0.00,CLR,,0.00,WeatherDisplay:10.37,2013-01-24 15:16:00,
2013-01-24 10:21:00,8.1,-14.6,30.11,WNW,290,5.8,5.8,34,0.00,CLR,,0.00,WeatherDisplay:10.37,2013-01-24 15:21:00,
2013-01-24 10:26:00,7.9,-14.7,30.11,WNW,289,6.9,6.9,34,0.00,CLR,,0.00,WeatherDisplay:10.37,2013-01-24 15:26:00,
2013-01-24 10:31:00,7.9,-14.7,30.11,NNW,331,5.8,5.8,34,0.00,CLR,,0.00,WeatherDisplay:10.37,2013-01-24 15:31:00,
2013-01-24 10:36:00,8.2,-14.4,30.11,WNW,294,6.9,6.9,34,0.00,CLR,,0.00,WeatherDisplay:10.37,2013-01-24 15:36:00,
2013-01-24 10:41:00,8.2,-14.4,30.11,WSW,248,5.8,5.8,34,0.00,CLR,,0.00,WeatherDisplay:10.37,2013-01-24 15:41:00,
2013-01-24 10:46:00,7.9,-14.7,30.11,NW,312,8.1,8.1,34,0.00,CLR,,0.00,WeatherDisplay:10.37,2013-01-24 15:46:00,
2013-01-24 10:51:00,8.4,-14.3,30.11,North,3,8.1,8.1,34,0.00,CLR,,0.00,WeatherDisplay:10.37,2013-01-24 15:51:00,
2013-01-24 10:56:00,8.8,-13.9,30.11,North,357,9.2,9.2,34,0.00,CLR,,0.00,WeatherDisplay:10.37,2013-01-24 15:56:00,
2013-01-24 11:01:00,8.8,-13.9,30.11,NNW,343,11.5,11.5,34,0.00,CLR,,0.00,WeatherDisplay:10.37,2013-01-24 16:01:00,
2013-01-24 11:06:00,9.0,-13.8,30.11,NW,322,6.3,6.3,34,0.00,CLR,,0.00,WeatherDisplay:10.37,2013-01-24 16:06:00,
2013-01-24 11:11:00,9.5,-13.3,30.11,NW,312,5.8,5.8,34,0.00,CLR,,0.00,WeatherDisplay:10.37,2013-01-24 16:11:00,
2013-01-24 11:16:00,10.0,-12.8,30.11,WNW,287,3.6,3.6,34,0.00,CLR,,0.00,WeatherDisplay:10.37,2013-01-24 16:16:00,
2013-01-24 11:21:00,10.6,-12.3,30.11,WNW,290,5.8,5.8,34,0.00,CLR,,0.00,WeatherDisplay:10.37,2013-01-24 16:21:00,
2013-01-24 11:26:00,13.5,-9.8,30.11,West,279,3.5,7.2,34,0.00,CLR,,0.00,WeatherDisplay:10.37,2013-01-24 16:26:00,
2013-01-24 11:31:00,12.2,-10.9,30.11,NW,315,5.8,5.8,34,0.00,CLR,,0.00,WeatherDisplay:10.37,2013-01-24 16:31:00,
2013-01-24 11:36:00,12.4,-10.7,30.11,WNW,287,5.8,5.8,34,0.00,CLR,,0.00,WeatherDisplay:10.37,2013-01-24 16:36:00,
2013-01-24 11:41:00,12.4,-10.7,30.11,NW,305,5.8,8.3,34,0.00,CLR,,0.00,WeatherDisplay:10.37,2013-01-24 16:41:00,
2013-01-24 11:46:00,12.4,-10.7,30.11,West,262,10.4,10.4,34,0.00,CLR,,0.00,WeatherDisplay:10.37,2013-01-24 16:46:00,
2013-01-24 11:51:00,12.4,-10.7,30.11,North,353,8.1,8.1,34,0.00,CLR,,0.00,WeatherDisplay:10.37,2013-01-24 16:51:00,
2013-01-24 11:56:00,12.0,-11.0,30.08,NW,326,8.1,8.1,34,0.00,CLR,,0.00,WeatherDisplay:10.37,2013-01-24 16:56:00,
2013-01-24 12:01:00,12.2,-10.9,30.08,NNW,332,5.8,5.8,34,0.00,CLR,,0.00,WeatherDisplay:10.37,2013-01-24 17:01:00,
2013-01-24 12:06:00,12.2,-10.9,30.08,NNW,348,4.6,6.7,34,0.00,CLR,,0.00,WeatherDisplay:10.37,2013-01-24 17:06:00,
2013-01-24 12:11:00,12.2,-10.9,30.08,WNW,292,10.4,10.4,34,0.00,CLR,,0.00,WeatherDisplay:10.37,2013-01-24 17:11:00,
2013-01-24 12:16:00,12.2,-10.9,30.08,North,349,9.2,9.2,34,0.00,CLR,,0.00,WeatherDisplay:10.37,2013-01-24 17:16:00,
2013-01-24 12:21:00,12.9,-10.2,30.08,NW,306,8.1,8.7,34,0.00,CLR,,0.00,WeatherDisplay:10.37,2013-01-24 17:21:00,
2013-01-24 12:26:00,12.0,-11.0,30.08,NW,304,10.4,10.4,34,0.00,CLR,,0.00,WeatherDisplay:10.37,2013-01-24 17:26:00,
2013-01-24 12:31:00,12.9,-10.2,30.08,WNW,287,5.8,5.8,34,0.00,CLR,,0.00,WeatherDisplay:10.37,2013-01-24 17:31:00,
2013-01-24 12:36:00,15.1,-8.3,30.08,West,263,8.1,8.1,34,0.00,CLR,,0.00,WeatherDisplay:10.37,2013-01-24 17:36:00,
2013-01-24 12:41:00,14.7,-8.6,30.08,North,357,9.2,9.2,34,0.00,CLR,,0.00,WeatherDisplay:10.37,2013-01-24 17:41:00,
2013-01-24 12:46:00,14.9,-8.5,30.08,NNW,336,5.8,6.7,34,0.00,CLR,,0.00,WeatherDisplay:10.37,2013-01-24 17:46:00,
2013-01-24 12:51:00,14.9,-8.5,30.08,ENE,57,5.8,5.8,34,0.00,CLR,,0.00,WeatherDisplay:10.37,2013-01-24 17:51:00,
2013-01-24 12:56:00,17.8,-6.5,30.08,NNW,338,5.8,5.8,33,0.00,CLR,,0.00,WeatherDisplay:10.37,2013-01-24 17:56:00,
2013-01-24 13:01:00,16.7,-7.5,30.08,NNW,338,10.4,10.4,33,0.00,CLR,,0.00,WeatherDisplay:10.37,2013-01-24 18:01:00,
2013-01-24 13:06:00,17.6,-6.7,30.08,NW,307,10.4,10.4,33,0.00,CLR,,0.00,WeatherDisplay:10.37,2013-01-24 18:06:00,
2013-01-24 13:11:00,14.7,-8.6,30.08,NW,307,8.1,8.1,34,0.00,CLR,,0.00,WeatherDisplay:10.37,2013-01-24 18:11:00,
2013-01-24 13:16:00,14.7,-8.6,30.08,WNW,284,8.1,8.1,34,0.00,CLR,,0.00,WeatherDisplay:10.37,2013-01-24 18:16:00,
2013-01-24 13:21:00,17.2,-7.0,30.08,WNW,295,3.5,5.4,33,0.00,CLR,,0.00,WeatherDisplay:10.37,2013-01-24 18:21:00,
2013-01-24 13:26:00,16.5,-7.6,30.08,NNE,14,8.1,8.1,33,0.00,CLR,,0.00,WeatherDisplay:10.37,2013-01-24 18:26:00,
2013-01-24 13:31:00,16.5,-7.6,30.08,NNW,328,5.8,8.0,33,0.00,CLR,,0.00,WeatherDisplay:10.37,2013-01-24 18:31:00,
2013-01-24 13:36:00,15.8,-7.7,30.08,NNW,343,5.8,7.6,34,0.00,CLR,,0.00,WeatherDisplay:10.37,2013-01-24 18:36:00,
2013-01-24 13:41:00,15.3,-8.1,30.05,NNE,17,3.5,0.0,34,0.00,CLR,,0.00,WeatherDisplay:10.37,2013-01-24 18:41:00,
2013-01-24 13:46:00,16.2,-8.0,30.05,WSW,257,5.8,5.8,33,0.00,CLR,,0.00,WeatherDisplay:10.37,2013-01-24 18:46:00,
2013-01-24 13:51:00,16.2,-8.0,30.05,NW,313,11.5,11.5,33,0.00,CLR,,0.00,WeatherDisplay:10.37,2013-01-24 18:51:00,
2013-01-24 13:56:00,15.4,-8.0,30.05,WSW,250,8.1,8.1,34,0.00,CLR,,0.00,WeatherDisplay:10.37,2013-01-24 18:56:00,
2013-01-24 14:01:00,15.3,-8.1,30.05,West,279,9.2,9.2,34,0.00,CLR,,0.00,WeatherDisplay:10.37,2013-01-24 19:01:00,
2013-01-24 14:06:00,15.3,-8.1,30.05,NW,321,4.6,7.2,34,0.00,CLR,,0.00,WeatherDisplay:10.37,2013-01-24 19:06:00,
2013-01-24 14:11:00,15.1,-8.3,30.05,WNW,297,4.6,4.6,34,0.00,CLR,,0.00,WeatherDisplay:10.37,2013-01-24 19:11:00,
2013-01-24 14:16:00,15.1,-8.3,30.05,North,8,4.0,4.0,34,0.00,CLR,,0.00,WeatherDisplay:10.37,2013-01-24 19:16:00,
2013-01-24 14:21:00,15.1,-8.3,30.05,WNW,294,8.1,8.1,34,0.00,CLR,,0.00,WeatherDisplay:10.37,2013-01-24 19:21:00,
2013-01-24 14:26:00,15.1,-8.3,30.05,WNW,291,5.8,5.8,34,0.00,CLR,,0.00,WeatherDisplay:10.37,2013-01-24 19:26:00,
2013-01-24 14:31:00,16.0,-8.1,30.05,NNE,20,8.1,8.1,33,0.00,CLR,,0.00,WeatherDisplay:10.37,2013-01-24 19:31:00,
2013-01-24 14:36:00,15.4,-8.0,30.05,WNW,285,9.2,9.2,34,0.00,CLR,,0.00,WeatherDisplay:10.37,2013-01-24 19:36:00,
2013-01-24 14:41:00,15.4,-8.0,30.05,North,357,5.8,5.8,34,0.00,CLR,,0.00,WeatherDisplay:10.37,2013-01-24 19:41:00,
2013-01-24 14:46:00,16.2,-8.0,30.05,NW,304,3.5,4.0,33,0.00,CLR,,0.00,WeatherDisplay:10.37,2013-01-24 19:46:00,
2013-01-24 14:51:00,17.4,-6.8,30.05,West,270,3.5,4.5,33,0.00,CLR,,0.00,WeatherDisplay:10.37,2013-01-24 19:51:00,
2013-01-24 14:56:00,17.1,-7.2,30.05,North,10,5.8,5.8,33,0.00,CLR,,0.00,WeatherDisplay:10.37,2013-01-24 19:56:00,
2013-01-24 15:01:00,16.9,-7.3,30.05,WNW,286,5.8,5.8,33,0.00,CLR,,0.00,WeatherDisplay:10.37,2013-01-24 20:01:00,
2013-01-24 15:06:00,17.1,-7.2,30.05,WNW,289,5.8,5.8,33,0.00,CLR,,0.00,WeatherDisplay:10.37,2013-01-24 20:06:00,
2013-01-24 15:11:00,17.1,-7.2,30.05,NNW,345,5.8,5.8,33,0.00,CLR,,0.00,WeatherDisplay:10.37,2013-01-24 20:11:00,
2013-01-24 15:16:00,17.1,-7.2,30.05,West,279,3.5,3.5,33,0.00,CLR,,0.00,WeatherDisplay:10.37,2013-01-24 20:16:00,
2013-01-24 15:21:00,17.1,-7.2,30.05,WSW,241,3.5,3.6,33,0.00,CLR,,0.00,WeatherDisplay:10.37,2013-01-24 20:21:00,
2013-01-24 15:26:00,16.7,-7.5,30.05,West,281,5.8,5.8,33,0.00,CLR,,0.00,WeatherDisplay:10.37,2013-01-24 20:26:00,
2013-01-24 15:31:00,16.5,-7.6,30.05,WNW,295,5.8,5.8,33,0.00,CLR,,0.00,WeatherDisplay:10.37,2013-01-24 20:31:00,
2013-01-24 15:36:00,16.5,-7.6,30.05,WSW,258,5.8,5.8,33,0.00,CLR,,0.00,WeatherDisplay:10.37,2013-01-24 20:36:00,
2013-01-24 15:41:00,16.2,-8.0,30.05,WNW,298,8.1,8.1,33,0.00,CLR,,0.00,WeatherDisplay:10.37,2013-01-24 20:41:00,
2013-01-24 15:46:00,16.2,-8.0,30.05,NNW,340,9.2,10.1,33,0.00,CLR,,0.00,WeatherDisplay:10.37,2013-01-24 20:46:00,
2013-01-24 15:51:00,16.2,-8.0,30.05,NNW,341,8.1,8.1,33,0.00,CLR,,0.00,WeatherDisplay:10.37,2013-01-24 20:51:00,
2013-01-24 15:56:00,16.0,-8.1,30.05,WNW,302,9.2,9.2,33,0.00,CLR,,0.00,WeatherDisplay:10.37,2013-01-24 20:56:00,
2013-01-24 16:01:00,16.0,-8.1,30.05,NW,306,8.1,8.1,33,0.00,CLR,,0.00,WeatherDisplay:10.37,2013-01-24 21:01:00,
2013-01-24 16:06:00,16.0,-8.1,30.05,North,3,7.6,7.6,33,0.00,CLR,,0.00,WeatherDisplay:10.37,2013-01-24 21:06:00,
2013-01-24 16:11:00,15.6,-7.8,30.05,North,353,8.1,8.1,34,0.00,CLR,,0.00,WeatherDisplay:10.37,2013-01-24 21:11:00,
2013-01-24 16:16:00,15.6,-7.8,30.05,WSW,252,9.2,9.2,34,0.00,CLR,,0.00,WeatherDisplay:10.37,2013-01-24 21:16:00,
2013-01-24 16:21:00,15.6,-7.8,30.05,West,279,8.1,8.1,34,0.00,CLR,,0.00,WeatherDisplay:10.37,2013-01-24 21:21:00,
2013-01-24 16:26:00,14.9,-8.5,30.08,WNW,297,11.5,11.5,34,0.00,CLR,,0.00,WeatherDisplay:10.37,2013-01-24 21:26:00,
2013-01-24 16:31:00,14.9,-8.5,30.08,WSW,252,11.5,11.5,34,0.00,CLR,,0.00,WeatherDisplay:10.37,2013-01-24 21:31:00,
2013-01-24 16:36:00,14.9,-8.5,30.08,NNE,13,8.1,8.1,34,0.00,CLR,,0.00,WeatherDisplay:10.37,2013-01-24 21:36:00,
2013-01-24 16:41:00,13.8,-9.4,30.08,NW,307,8.1,8.1,34,0.00,CLR,,0.00,WeatherDisplay:10.37,2013-01-24 21:41:00,
2013-01-24 16:46:00,14.0,-9.3,30.08,NNW,335,5.8,5.8,34,0.00,CLR,,0.00,WeatherDisplay:10.37,2013-01-24 21:46:00,
2013-01-24 16:51:00,13.6,-9.6,30.08,NW,312,5.8,8.7,34,0.00,CLR,,0.00,WeatherDisplay:10.37,2013-01-24 21:51:00,
2013-01-24 16:56:00,13.5,-9.8,30.08,NW,306,10.4,10.4,34,0.00,CLR,,0.00,WeatherDisplay:10.37,2013-01-24 21:56:00,
2013-01-24 17:01:00,13.5,-9.8,30.08,WNW,286,4.6,7.2,34,0.00,CLR,,0.00,WeatherDisplay:10.37,2013-01-24 22:01:00,
2013-01-24 17:06:00,13.5,-9.8,30.08,West,273,3.5,4.5,34,0.00,CLR,,0.00,WeatherDisplay:10.37,2013-01-24 22:06:00,
2013-01-24 17:11:00,13.5,-9.8,30.11,NW,306,5.8,5.8,34,0.00,CLR,,0.00,WeatherDisplay:10.37,2013-01-24 22:11:00,
2013-01-24 17:16:00,13.5,-9.8,30.11,NW,318,4.5,5.8,34,0.00,CLR,,0.00,WeatherDisplay:10.37,2013-01-24 22:16:00,
2013-01-24 17:21:00,13.5,-9.8,30.11,WNW,303,5.8,5.8,34,0.00,CLR,,0.00,WeatherDisplay:10.37,2013-01-24 22:21:00,
2013-01-24 17:26:00,13.6,-9.6,30.11,NNW,329,8.1,8.1,34,0.00,CLR,,0.00,WeatherDisplay:10.37,2013-01-24 22:26:00,
2013-01-24 17:31:00,13.6,-9.6,30.11,NNW,343,5.8,6.7,34,0.00,CLR,,0.00,WeatherDisplay:10.37,2013-01-24 22:31:00,
2013-01-24 17:36:00,12.9,-10.2,30.11,WNW,297,5.8,5.8,34,0.00,CLR,,0.00,WeatherDisplay:10.37,2013-01-24 22:36:00,
2013-01-24 17:41:00,13.3,-9.9,30.11,WNW,290,13.8,13.8,34,0.00,CLR,,0.00,WeatherDisplay:10.37,2013-01-24 22:41:00,
2013-01-24 17:46:00,13.3,-9.9,30.11,West,273,3.5,3.5,34,0.00,CLR,,0.00,WeatherDisplay:10.37,2013-01-24 22:46:00,
2013-01-24 17:51:00,13.3,-9.9,30.11,West,271,5.8,5.8,34,0.00,CLR,,0.00,WeatherDisplay:10.37,2013-01-24 22:51:00,
2013-01-24 17:56:00,12.7,-10.4,30.11,NW,308,3.5,0.0,34,0.00,CLR,,0.00,WeatherDisplay:10.37,2013-01-24 22:56:00,
2013-01-24 18:01:00,12.9,-10.2,30.11,NNW,343,5.8,5.8,34,0.00,CLR,,0.00,WeatherDisplay:10.37,2013-01-24 23:01:00,
2013-01-24 18:06:00,12.9,-10.2,30.11,NNE,26,5.8,5.8,34,0.00,CLR,,0.00,WeatherDisplay:10.37,2013-01-24 23:06:00,
2013-01-24 18:11:00,12.9,-10.2,30.11,North,6,5.8,5.8,34,0.00,CLR,,0.00,WeatherDisplay:10.37,2013-01-24 23:11:00,
2013-01-24 18:16:00,12.9,-10.2,30.11,NNW,330,9.2,9.2,34,0.00,CLR,,0.00,WeatherDisplay:10.37,2013-01-24 23:16:00,
2013-01-24 18:21:00,13.3,-9.9,30.11,North,353,8.1,8.1,34,0.00,CLR,,0.00,WeatherDisplay:10.37,2013-01-24 23:21:00,
2013-01-24 18:26:00,13.3,-9.9,30.11,North,357,5.8,5.8,34,0.00,CLR,,0.00,WeatherDisplay:10.37,2013-01-24 23:26:00,
2013-01-24 18:31:00,13.5,-9.8,30.11,NNW,330,5.8,5.8,34,0.00,CLR,,0.00,WeatherDisplay:10.37,2013-01-24 23:31:00,
2013-01-24 18:36:00,12.7,-10.4,30.11,NW,307,3.5,0.0,34,0.00,CLR,,0.00,WeatherDisplay:10.37,2013-01-24 23:36:00,
2013-01-24 18:41:00,12.9,-10.2,30.11,ENE,57,4.6,4.6,34,0.00,CLR,,0.00,WeatherDisplay:10.37,2013-01-24 23:41:00,
2013-01-24 18:46:00,12.9,-10.2,30.11,NW,324,5.8,5.8,34,0.00,CLR,,0.00,WeatherDisplay:10.37,2013-01-24 23:46:00,
2013-01-24 18:51:00,12.9,-10.2,30.11,West,272,5.8,5.8,34,0.00,CLR,,0.00,WeatherDisplay:10.37,2013-01-24 23:51:00,
2013-01-24 18:56:00,12.9,-10.2,30.14,NW,317,5.8,6.3,34,0.00,CLR,,0.00,WeatherDisplay:10.37,2013-01-24 23:56:00,
2013-01-24 19:01:00,12.9,-10.2,30.14,WNW,291,4.6,4.6,34,0.00,CLR,,0.00,WeatherDisplay:10.37,2013-01-25 00:01:00,
2013-01-24 19:06:00,12.6,-10.6,30.14,North,10,3.5,3.6,34,0.00,CLR,,0.00,WeatherDisplay:10.37,2013-01-25 00:06:00,
2013-01-24 19:11:00,12.6,-10.6,30.14,NW,304,3.5,4.5,34,0.00,CLR,,0.00,WeatherDisplay:10.37,2013-01-25 00:11:00,
2013-01-24 19:16:00,12.7,-10.4,30.14,WNW,295,5.8,5.8,34,0.00,CLR,,0.00,WeatherDisplay:10.37,2013-01-25 00:16:00,
2013-01-24 19:21:00,12.4,-10.7,30.14,West,271,5.8,5.8,34,0.00,CLR,,0.00,WeatherDisplay:10.37,2013-01-25 00:21:00,
2013-01-24 19:26:00,12.6,-10.6,30.14,WNW,301,3.5,3.5,34,0.00,CLR,,0.00,WeatherDisplay:10.37,2013-01-25 00:26:00,
2013-01-24 19:31:00,12.6,-10.6,30.14,NW,317,3.5,3.5,34,0.00,CLR,,0.00,WeatherDisplay:10.37,2013-01-25 00:31:00,
2013-01-24 19:36:00,12.2,-10.9,30.14,WNW,297,5.8,5.8,34,0.00,CLR,,0.00,WeatherDisplay:10.37,2013-01-25 00:36:00,
2013-01-24 19:41:00,12.0,-11.0,30.14,West,263,3.5,3.5,34,0.00,CLR,,0.00,WeatherDisplay:10.37,2013-01-25 00:41:00,
2013-01-24 19:46:00,11.8,-11.2,30.14,WSW,255,4.6,6.7,34,0.00,CLR,,0.00,WeatherDisplay:10.37,2013-01-25 00:46:00,
2013-01-24 19:51:00,11.8,-11.2,30.14,West,266,4.6,5.4,34,0.00,CLR,,0.00,WeatherDisplay:10.37,2013-01-25 00:51:00,
2013-01-24 19:56:00,12.0,-11.0,30.14,WNW,295,5.8,5.8,34,0.00,CLR,,0.00,WeatherDisplay:10.37,2013-01-25 00:56:00,
2013-01-24 20:01:00,11.8,-11.2,30.14,NNE,15,2.3,6.7,34,0.00,CLR,,0.00,WeatherDisplay:10.37,2013-01-25 01:01:00,
2013-01-24 20:06:00,11.8,-11.2,30.14,West,268,5.8,5.8,34,0.00,CLR,,0.00,WeatherDisplay:10.37,2013-01-25 01:06:00,
2013-01-24 20:11:00,11.8,-11.2,30.14,WSW,252,8.1,8.1,34,0.00,CLR,,0.00,WeatherDisplay:10.37,2013-01-25 01:11:00,
2013-01-24 20:16:00,11.7,-11.4,30.14,West,279,3.5,3.5,34,0.00,CLR,,0.00,WeatherDisplay:10.37,2013-01-25 01:16:00,
2013-01-24 20:21:00,11.8,-11.2,30.14,NNW,333,5.8,5.8,34,0.00,CLR,,0.00,WeatherDisplay:10.37,2013-01-25 01:21:00,
2013-01-24 20:26:00,11.8,-11.2,30.14,WNW,290,5.8,5.8,34,0.00,CLR,,0.00,WeatherDisplay:10.37,2013-01-25 01:26:00,
2013-01-24 20:31:00,11.3,-11.7,30.14,WNW,285,2.3,2.7,34,0.00,CLR,,0.00,WeatherDisplay:10.37,2013-01-25 01:31:00,
2013-01-24 20:36:00,11.7,-11.4,30.14,NNE,21,8.1,8.1,34,0.00,CLR,,0.00,WeatherDisplay:10.37,2013-01-25 01:36:00,
2013-01-24 20:41:00,11.7,-11.4,30.14,North,353,5.8,5.8,34,0.00,CLR,,0.00,WeatherDisplay:10.37,2013-01-25 01:41:00,
2013-01-24 20:46:00,11.3,-11.7,30.14,NNW,341,3.5,4.5,34,0.00,CLR,,0.00,WeatherDisplay:10.37,2013-01-25 01:46:00,
2013-01-24 20:51:00,11.3,-11.7,30.14,NW,325,10.4,10.4,34,0.00,CLR,,0.00,WeatherDisplay:10.37,2013-01-25 01:51:00,
2013-01-24 20:56:00,11.3,-11.7,30.17,SW,234,5.8,5.8,34,0.00,CLR,,0.00,WeatherDisplay:10.37,2013-01-25 01:56:00,
2013-01-24 21:01:00,11.7,-11.4,30.17,WNW,294,5.8,5.8,34,0.00,CLR,,0.00,WeatherDisplay:10.37,2013-01-25 02:01:00,
2013-01-24 21:06:00,11.7,-11.4,30.17,WNW,297,5.8,5.8,34,0.00,CLR,,0.00,WeatherDisplay:10.37,2013-01-25 02:06:00,
2013-01-24 21:11:00,11.7,-11.4,30.17,WNW,301,3.5,3.5,34,0.00,CLR,,0.00,WeatherDisplay:10.37,2013-01-25 02:11:00,
2013-01-24 21:16:00,11.7,-11.4,30.17,WNW,288,5.8,5.8,34,0.00,CLR,,0.00,WeatherDisplay:10.37,2013-01-25 02:16:00,
2013-01-24 21:21:00,10.8,-12.2,30.17,NW,323,4.6,4.9,34,0.00,CLR,,0.00,WeatherDisplay:10.37,2013-01-25 02:21:00,
2013-01-24 21:26:00,10.9,-12.0,30.17,West,273,9.2,9.2,34,0.00,CLR,,0.00,WeatherDisplay:10.37,2013-01-25 02:26:00,
2013-01-24 21:31:00,10.9,-12.0,30.17,WSW,258,3.5,3.5,34,0.00,CLR,,0.00,WeatherDisplay:10.37,2013-01-25 02:31:00,
2013-01-24 21:36:00,10.8,-12.2,30.17,West,264,3.5,3.5,34,0.00,CLR,,0.00,WeatherDisplay:10.37,2013-01-25 02:36:00,
2013-01-24 21:41:00,10.8,-12.2,30.17,NNW,330,3.5,3.5,34,0.00,CLR,,0.00,WeatherDisplay:10.37,2013-01-25 02:41:00,
2013-01-24 21:46:00,10.2,-12.6,30.17,NNE,12,8.1,8.1,34,0.00,CLR,,0.00,WeatherDisplay:10.37,2013-01-25 02:46:00,
2013-01-24 21:51:00,10.2,-12.6,30.17,NW,311,5.8,5.8,34,0.00,CLR,,0.00,WeatherDisplay:10.37,2013-01-25 02:51:00,
2013-01-24 21:56:00,10.2,-12.6,30.17,WNW,295,5.8,5.8,34,0.00,CLR,,0.00,WeatherDisplay:10.37,2013-01-25 02:56:00,
2013-01-24 22:01:00,10.2,-12.6,30.17,West,278,8.1,8.1,34,0.00,CLR,,0.00,WeatherDisplay:10.37,2013-01-25 03:01:00,
2013-01-24 22:06:00,9.7,-13.1,30.17,North,349,4.6,4.6,34,0.00,CLR,,0.00,WeatherDisplay:10.37,2013-01-25 03:06:00,
2013-01-24 22:11:00,9.9,-13.0,30.17,NNE,22,2.3,2.7,34,0.00,CLR,,0.00,WeatherDisplay:10.37,2013-01-25 03:11:00,
2013-01-24 22:16:00,9.5,-13.3,30.17,NW,314,2.3,2.3,34,0.00,CLR,,0.00,WeatherDisplay:10.37,2013-01-25 03:16:00,
2013-01-24 22:21:00,9.5,-13.3,30.17,NNE,30,3.5,3.5,34,0.00,CLR,,0.00,WeatherDisplay:10.37,2013-01-25 03:21:00,
2013-01-24 22:26:00,9.3,-13.4,30.17,WNW,302,5.8,5.8,34,0.00,CLR,,0.00,WeatherDisplay:10.37,2013-01-25 03:26:00,
2013-01-24 22:31:00,9.5,-13.3,30.17,NW,320,4.6,4.6,34,0.00,CLR,,0.00,WeatherDisplay:10.37,2013-01-25 03:31:00,
2013-01-24 22:36:00,9.7,-13.1,30.17,NW,310,11.5,11.5,34,0.00,CLR,,0.00,WeatherDisplay:10.37,2013-01-25 03:36:00,
2013-01-24 22:41:00,9.7,-13.1,30.17,NW,321,3.5,3.6,34,0.00,CLR,,0.00,WeatherDisplay:10.37,2013-01-25 03:41:00,
2013-01-24 22:46:00,9.5,-13.3,30.17,West,281,3.5,3.6,34,0.00,CLR,,0.00,WeatherDisplay:10.37,2013-01-25 03:46:00,
2013-01-24 22:51:00,9.3,-13.4,30.17,NW,314,3.5,4.5,34,0.00,CLR,,0.00,WeatherDisplay:10.37,2013-01-25 03:51:00,
2013-01-24 22:56:00,9.5,-13.3,30.17,North,349,5.8,5.8,34,0.00,CLR,,0.00,WeatherDisplay:10.37,2013-01-25 03:56:00,
2013-01-24 23:01:00,9.5,-13.3,30.17,NW,325,10.4,10.4,34,0.00,CLR,,0.00,WeatherDisplay:10.37,2013-01-25 04:01:00,
2013-01-24 23:06:00,9.3,-13.4,30.17,West,271,5.8,5.8,34,0.00,CLR,,0.00,WeatherDisplay:10.37,2013-01-25 04:06:00,
2013-01-24 23:11:00,9.3,-13.4,30.19,NW,317,5.8,5.8,34,0.00,CLR,,0.00,WeatherDisplay:10.37,2013-01-25 04:11:00,
2013-01-24 23:16:00,9.1,-13.6,30.19,West,277,9.2,9.2,34,0.00,CLR,,0.00,WeatherDisplay:10.37,2013-01-25 04:16:00,
2013-01-24 23:21:00,9.1,-13.6,30.19,NW,314,4.6,4.6,34,0.00,CLR,,0.00,WeatherDisplay:10.37,2013-01-25 04:21:00,
2013-01-24 23:26:00,8.8,-13.9,30.19,North,357,5.8,5.8,34,0.00,CLR,,0.00,WeatherDisplay:10.37,2013-01-25 04:26:00,
2013-01-24 23:31:00,8.8,-13.9,30.19,WNW,296,3.5,3.6,34,0.00,CLR,,0.00,WeatherDisplay:10.37,2013-01-25 04:31:00,
2013-01-24 23:36:00,8.4,-14.3,30.19,NNW,344,4.6,4.9,34,0.00,CLR,,0.00,WeatherDisplay:10.37,2013-01-25 04:36:00,
2013-01-24 23:41:00,8.6,-14.1,30.19,NW,304,8.1,8.1,34,0.00,CLR,,0.00,WeatherDisplay:10.37,2013-01-25 04:41:00,
2013-01-24 23:46:00,8.4,-14.3,30.19,NW,322,5.8,5.8,34,0.00,CLR,,0.00,WeatherDisplay:10.37,2013-01-25 04:46:00,
2013-01-24 23:51:00,8.1,-14.6,30.19,North,357,4.6,4.9,34,0.00,CLR,,0.00,WeatherDisplay:10.37,2013-01-25 04:51:00,
2013-01-24 23:56:00,8.2,-14.4,30.19,WNW,295,3.5,3.6,34,0.00,CLR,,0.00,WeatherDisplay:10.37,2013-01-25 04:56:00,